User: anonymous   Login
Location: Syracuse
(43.0480°N, 76.1480°W)
Time: 00:31:27
(UTC-04:00)
Language:

Cosmos 1140 Rocket - Orbit

View from above orbital plane
View from above orbital plane
View from above satellite
View from above satellite

Ground track
Ground track

The orbit data is extracted from the following two-line orbital elements,

1 11574U 79089B   16177.88759122  .00000022  00000-0  15210-4 0  9992
2 11574  74.0683 156.6864 0015391 156.6094 203.5765 14.40576333925835
Epoch (UTC): 25 June 2016 21:18:07
Eccentricity: 0.0015391
inclination: 74.0683°
perigee height: 745 km
apogee height: 767 km
right ascension of ascending node: 156.6864°
argument of perigee: 156.6094°
revolutions per day: 14.40576333
mean anomaly at epoch: 203.5765°
orbit number at epoch: 92583

The dashed part of the orbit path shows where the satellite is in the earth's shadow,  

DLR